Time,TemperatureF,DewpointF,PressureIn,WindDirection,WindDirectionDegrees,WindSpeedMPH,WindSpeedGustMPH,Humidity,HourlyPrecipIn,Conditions,Clouds,dailyrainin,SoftwareType,DateUTC
2013-02-25 00:00:00,26.2,23.9,30.20,NNW,330,1.0,2.0,91,0.00,,,0.00,meteohub,2013-02-25 05:00:00,
2013-02-25 00:01:00,26.2,23.9,30.21,NNW,330,1.0,2.0,91,0.00,,,0.00,meteohub,2013-02-25 05:01:00,
2013-02-25 00:02:00,26.2,23.9,30.21,NNW,330,1.0,2.0,91,0.00,,,0.00,meteohub,2013-02-25 05:02:00,
2013-02-25 00:07:00,26.1,23.7,30.21,NNW,330,0.0,2.0,91,0.00,,,0.00,meteohub,2013-02-25 05:07:00,
2013-02-25 00:12:00,25.9,23.5,30.21,NNW,330,0.0,2.0,91,0.00,,,0.00,meteohub,2013-02-25 05:12:00,
2013-02-25 00:17:00,25.7,23.4,30.21,NNW,330,0.0,2.0,91,0.00,,,0.00,meteohub,2013-02-25 05:17:00,
2013-02-25 00:22:00,25.5,23.2,30.21,NNW,330,0.0,2.0,91,0.00,,,0.00,meteohub,2013-02-25 05:22:00,
2013-02-25 00:27:00,25.3,23.4,30.21,NNW,330,0.0,1.0,92,0.00,,,0.00,meteohub,2013-02-25 05:27:00,
2013-02-25 00:32:00,25.2,23.2,30.21,NNW,330,0.0,0.0,92,0.00,,,0.00,meteohub,2013-02-25 05:32:00,
2013-02-25 00:37:00,25.2,23.2,30.21,NNW,330,0.0,0.0,92,0.00,,,0.00,meteohub,2013-02-25 05:37:00,
2013-02-25 00:42:00,25.0,23.0,30.21,NNW,330,0.0,0.0,92,0.00,,,0.00,meteohub,2013-02-25 05:42:00,
2013-02-25 00:47:00,24.8,22.8,30.21,NNW,330,0.0,0.0,92,0.00,,,0.00,meteohub,2013-02-25 05:47:00,
2013-02-25 00:52:00,24.6,22.6,30.21,NNW,330,0.0,0.0,92,0.00,,,0.00,meteohub,2013-02-25 05:52:00,
2013-02-25 00:57:00,24.3,22.3,30.21,NNW,330,0.0,0.0,92,0.00,,,0.00,meteohub,2013-02-25 05:57:00,
2013-02-25 01:02:00,24.3,22.5,30.21,NNW,330,0.0,0.0,93,0.00,,,0.00,meteohub,2013-02-25 06:02:00,
2013-02-25 01:07:00,24.1,22.3,30.21,NNW,330,2.0,0.0,93,0.00,,,0.00,meteohub,2013-02-25 06:07:00,
2013-02-25 01:12:00,23.9,22.1,30.21,NNW,330,1.0,2.0,93,0.00,,,0.00,meteohub,2013-02-25 06:12:00,
2013-02-25 01:17:00,23.5,21.7,30.21,NNW,330,1.0,2.0,93,0.00,,,0.00,meteohub,2013-02-25 06:17:00,
2013-02-25 01:22:00,23.5,21.7,30.21,NNW,330,1.0,2.0,93,0.00,,,0.00,meteohub,2013-02-25 06:22:00,
2013-02-25 01:27:00,23.4,21.6,30.22,NNW,330,1.0,2.0,93,0.00,,,0.00,meteohub,2013-02-25 06:27:00,
2013-02-25 01:32:00,23.2,21.4,30.22,NNW,330,1.0,2.0,93,0.00,,,0.00,meteohub,2013-02-25 06:32:00,
2013-02-25 01:37:00,22.8,21.0,30.22,NNW,330,1.0,2.0,93,0.00,,,0.00,meteohub,2013-02-25 06:37:00,
2013-02-25 01:42:00,22.5,20.7,30.22,NNW,330,0.0,2.0,93,0.00,,,0.00,meteohub,2013-02-25 06:42:00,
2013-02-25 01:47:00,22.3,20.5,30.22,NNW,330,1.0,2.0,93,0.00,,,0.00,meteohub,2013-02-25 06:47:00,
2013-02-25 01:52:00,22.1,20.3,30.22,NNW,330,1.0,2.0,93,0.00,,,0.00,meteohub,2013-02-25 06:52:00,
2013-02-25 01:57:00,22.1,20.3,30.22,NNW,330,1.0,2.0,93,0.00,,,0.00,meteohub,2013-02-25 06:57:00,
2013-02-25 02:02:00,21.9,20.1,30.23,NNW,330,1.0,2.0,93,0.00,,,0.00,meteohub,2013-02-25 07:02:00,
2013-02-25 02:07:00,21.9,20.1,30.23,NNW,330,0.0,2.0,93,0.00,,,0.00,meteohub,2013-02-25 07:07:00,
2013-02-25 02:12:00,21.7,20.1,30.23,NNW,330,1.0,2.0,93,0.00,,,0.00,meteohub,2013-02-25 07:12:00,
2013-02-25 02:17:00,21.7,20.1,30.23,NNW,330,1.0,2.0,93,0.00,,,0.00,meteohub,2013-02-25 07:17:00,
2013-02-25 02:22:00,21.6,19.9,30.23,NNW,330,2.0,2.0,93,0.00,,,0.00,meteohub,2013-02-25 07:22:00,
2013-02-25 02:27:00,20.8,18.9,30.23,NNW,330,2.0,3.0,92,0.00,,,0.00,meteohub,2013-02-25 07:27:00,
2013-02-25 02:32:00,20.7,19.0,30.23,NNW,331,1.0,3.0,93,0.00,,,0.00,meteohub,2013-02-25 07:32:00,
2013-02-25 02:37:00,20.8,19.2,30.23,NNW,331,1.0,3.0,93,0.00,,,0.00,meteohub,2013-02-25 07:37:00,
2013-02-25 02:42:00,21.0,19.6,30.23,NNW,331,1.0,3.0,94,0.00,,,0.00,meteohub,2013-02-25 07:42:00,
2013-02-25 02:47:00,21.0,19.6,30.23,NNW,331,1.0,2.0,94,0.00,,,0.00,meteohub,2013-02-25 07:47:00,
2013-02-25 02:52:00,21.4,19.9,30.23,NNW,331,0.0,2.0,94,0.00,,,0.00,meteohub,2013-02-25 07:52:00,
2013-02-25 02:57:00,21.6,20.1,30.23,NNW,331,0.0,2.0,94,0.00,,,0.00,meteohub,2013-02-25 07:57:00,
2013-02-25 03:02:00,21.9,20.5,30.23,NNW,331,0.0,1.0,94,0.00,,,0.00,meteohub,2013-02-25 08:02:00,
2013-02-25 03:07:00,22.1,20.7,30.23,NNW,331,0.0,1.0,94,0.00,,,0.00,meteohub,2013-02-25 08:07:00,
2013-02-25 03:12:00,21.9,20.5,30.22,NNW,331,0.0,0.0,94,0.00,,,0.00,meteohub,2013-02-25 08:12:00,
2013-02-25 03:17:00,22.1,20.7,30.22,NNW,331,0.0,0.0,94,0.00,,,0.00,meteohub,2013-02-25 08:17:00,
2013-02-25 03:22:00,22.3,20.8,30.22,NNW,331,0.0,0.0,94,0.00,,,0.00,meteohub,2013-02-25 08:22:00,
2013-02-25 03:27:00,21.6,19.9,30.22,NNW,331,0.0,0.0,93,0.00,,,0.00,meteohub,2013-02-25 08:27:00,
2013-02-25 03:32:00,21.6,20.1,30.22,NNW,331,1.0,0.0,94,0.00,,,0.00,meteohub,2013-02-25 08:32:00,
2013-02-25 03:37:00,21.2,19.6,30.22,NNW,331,1.0,2.0,93,0.00,,,0.00,meteohub,2013-02-25 08:37:00,
2013-02-25 03:42:00,21.2,19.8,30.22,NNW,331,2.0,2.0,94,0.00,,,0.00,meteohub,2013-02-25 08:42:00,
2013-02-25 03:47:00,21.6,20.1,30.22,NNW,331,2.0,2.0,94,0.00,,,0.00,meteohub,2013-02-25 08:47:00,
2013-02-25 03:52:00,21.0,19.4,30.22,NNW,331,1.0,2.0,93,0.00,,,0.00,meteohub,2013-02-25 08:52:00,
2013-02-25 03:57:00,21.0,19.4,30.22,NNW,331,2.0,2.0,93,0.00,,,0.00,meteohub,2013-02-25 08:57:00,
2013-02-25 04:02:00,20.8,19.4,30.23,NNW,331,2.0,3.0,94,0.00,,,0.00,meteohub,2013-02-25 09:02:00,
2013-02-25 04:07:00,20.7,19.0,30.22,NNW,331,1.0,3.0,93,0.00,,,0.00,meteohub,2013-02-25 09:07:00,
2013-02-25 04:12:00,21.6,20.3,30.22,NNW,331,2.0,3.0,95,0.00,,,0.00,meteohub,2013-02-25 09:12:00,
2013-02-25 04:17:00,21.6,20.1,30.22,NNW,331,0.0,3.0,94,0.00,,,0.00,meteohub,2013-02-25 09:17:00,
2013-02-25 04:22:00,22.1,20.8,30.22,NNW,331,0.0,2.0,95,0.00,,,0.00,meteohub,2013-02-25 09:22:00,
2013-02-25 04:27:00,22.1,20.7,30.22,NNW,331,0.0,2.0,94,0.00,,,0.00,meteohub,2013-02-25 09:27:00,
2013-02-25 04:32:00,21.9,20.5,30.22,NNW,331,1.0,1.0,94,0.00,,,0.00,meteohub,2013-02-25 09:32:00,
2013-02-25 04:37:00,22.3,20.8,30.22,North,0,0.0,2.0,94,0.00,,,0.00,meteohub,2013-02-25 09:37:00,
2013-02-25 04:42:00,22.8,21.6,30.22,NE,49,0.0,2.0,95,0.00,,,0.00,meteohub,2013-02-25 09:42:00,
2013-02-25 04:47:00,23.4,22.1,30.22,NE,49,0.0,2.0,95,0.00,,,0.00,meteohub,2013-02-25 09:47:00,
2013-02-25 04:52:00,23.4,22.1,30.22,NE,49,1.0,2.0,95,0.00,,,0.00,meteohub,2013-02-25 09:52:00,
2013-02-25 04:57:00,22.8,21.4,30.23,North,9,1.0,2.0,94,0.00,,,0.00,meteohub,2013-02-25 09:57:00,
2013-02-25 05:02:00,23.0,21.7,30.23,NNE,13,0.0,2.0,95,0.00,,,0.00,meteohub,2013-02-25 10:02:00,
2013-02-25 05:07:00,23.0,21.7,30.23,NNE,13,0.0,2.0,95,0.00,,,0.00,meteohub,2013-02-25 10:07:00,
2013-02-25 05:12:00,22.8,21.4,30.23,NNE,13,0.0,2.0,94,0.00,,,0.00,meteohub,2013-02-25 10:12:00,
2013-02-25 05:17:00,22.8,21.6,30.23,NNE,13,0.0,0.0,95,0.00,,,0.00,meteohub,2013-02-25 10:17:00,
2013-02-25 05:22:00,22.8,21.6,30.23,NNE,13,0.0,0.0,95,0.00,,,0.00,meteohub,2013-02-25 10:22:00,
2013-02-25 05:27:00,22.8,21.4,30.24,NNE,13,0.0,0.0,94,0.00,,,0.00,meteohub,2013-02-25 10:27:00,
2013-02-25 05:32:00,22.6,21.2,30.23,NNE,13,0.0,0.0,94,0.00,,,0.00,meteohub,2013-02-25 10:32:00,
2013-02-25 05:37:00,22.6,21.2,30.24,NNE,13,0.0,0.0,94,0.00,,,0.00,meteohub,2013-02-25 10:37:00,
2013-02-25 05:42:00,22.3,20.8,30.24,NNE,13,0.0,0.0,94,0.00,,,0.00,meteohub,2013-02-25 10:42:00,
2013-02-25 05:47:00,21.9,20.5,30.24,NNE,13,0.0,0.0,94,0.00,,,0.00,meteohub,2013-02-25 10:47:00,
2013-02-25 05:52:00,21.7,20.3,30.24,NNE,13,0.0,0.0,94,0.00,,,0.00,meteohub,2013-02-25 10:52:00,
2013-02-25 05:57:00,21.6,20.1,30.25,NNE,13,0.0,0.0,94,0.00,,,0.00,meteohub,2013-02-25 10:57:00,
2013-02-25 06:02:00,21.4,19.9,30.25,NNE,13,0.0,0.0,94,0.00,,,0.00,meteohub,2013-02-25 11:02:00,
2013-02-25 06:07:00,21.0,19.6,30.25,NNE,13,0.0,0.0,94,0.00,,,0.00,meteohub,2013-02-25 11:07:00,
2013-02-25 06:12:00,20.7,19.0,30.25,NNE,13,0.0,0.0,93,0.00,,,0.00,meteohub,2013-02-25 11:12:00,
2013-02-25 06:17:00,20.3,18.7,30.25,NNE,13,0.0,0.0,93,0.00,,,0.00,meteohub,2013-02-25 11:17:00,
2013-02-25 06:22:00,19.9,18.3,30.26,NNE,13,0.0,0.0,93,0.00,,,0.00,meteohub,2013-02-25 11:22:00,
2013-02-25 06:27:00,19.6,18.0,30.25,NNE,13,0.0,0.0,93,0.00,,,0.00,meteohub,2013-02-25 11:27:00,
2013-02-25 06:32:00,19.2,17.6,30.26,NNE,13,0.0,0.0,93,0.00,,,0.00,meteohub,2013-02-25 11:32:00,
2013-02-25 06:37:00,19.0,17.4,30.26,NNE,13,0.0,0.0,93,0.00,,,0.00,meteohub,2013-02-25 11:37:00,
2013-02-25 06:42:00,18.7,17.1,30.26,NNE,13,0.0,0.0,93,0.00,,,0.00,meteohub,2013-02-25 11:42:00,
2013-02-25 06:47:00,18.3,16.7,30.27,NNE,13,0.0,0.0,93,0.00,,,0.00,meteohub,2013-02-25 11:47:00,
2013-02-25 06:52:00,18.1,16.5,30.27,NNE,13,0.0,0.0,93,0.00,,,0.00,meteohub,2013-02-25 11:52:00,
2013-02-25 06:57:00,18.0,16.3,30.27,NNE,13,0.0,0.0,93,0.00,,,0.00,meteohub,2013-02-25 11:57:00,
2013-02-25 07:02:00,18.0,16.3,30.27,NNE,13,0.0,0.0,93,0.00,,,0.00,meteohub,2013-02-25 12:02:00,
2013-02-25 07:07:00,17.8,16.2,30.27,NNE,13,0.0,0.0,93,0.00,,,0.00,meteohub,2013-02-25 12:07:00,
2013-02-25 07:12:00,17.8,16.2,30.27,NNE,13,0.0,0.0,93,0.00,,,0.00,meteohub,2013-02-25 12:12:00,
2013-02-25 07:17:00,17.4,15.4,30.28,NNE,13,0.0,0.0,92,0.00,,,0.00,meteohub,2013-02-25 12:17:00,
2013-02-25 07:22:00,17.1,15.1,30.28,NNE,13,0.0,0.0,92,0.00,,,0.00,meteohub,2013-02-25 12:22:00,
2013-02-25 07:27:00,16.9,14.9,30.27,NNE,13,0.0,0.0,92,0.00,,,0.00,meteohub,2013-02-25 12:27:00,
2013-02-25 07:32:00,16.9,14.9,30.27,NNE,13,0.0,0.0,92,0.00,,,0.00,meteohub,2013-02-25 12:32:00,
2013-02-25 07:37:00,17.2,15.6,30.27,NNE,13,0.0,0.0,93,0.00,,,0.00,meteohub,2013-02-25 12:37:00,
2013-02-25 07:42:00,17.6,16.0,30.27,NNE,14,0.0,0.0,93,0.00,,,0.00,meteohub,2013-02-25 12:42:00,
2013-02-25 07:47:00,18.0,16.3,30.28,NNE,14,0.0,0.0,93,0.00,,,0.00,meteohub,2013-02-25 12:47:00,
2013-02-25 07:52:00,18.5,16.9,30.28,NNE,15,0.0,0.0,93,0.00,,,0.00,meteohub,2013-02-25 12:52:00,
2013-02-25 07:57:00,19.0,17.4,30.29,NNE,14,0.0,0.0,93,0.00,,,0.00,meteohub,2013-02-25 12:57:00,
2013-02-25 08:02:00,19.6,18.0,30.29,NNE,15,0.0,0.0,93,0.00,,,0.00,meteohub,2013-02-25 13:02:00,
2013-02-25 08:07:00,20.5,19.0,30.29,NNE,15,0.0,0.0,94,0.00,,,0.00,meteohub,2013-02-25 13:07:00,
2013-02-25 08:13:00,21.4,19.9,30.29,NNE,14,0.0,0.0,94,0.00,,,0.00,meteohub,2013-02-25 13:13:00,
2013-02-25 08:18:00,21.9,20.5,30.29,NNE,14,0.0,0.0,94,0.00,,,0.00,meteohub,2013-02-25 13:18:00,
2013-02-25 08:23:00,22.8,21.6,30.29,NNE,14,0.0,0.0,95,0.00,,,0.00,meteohub,2013-02-25 13:23:00,
2013-02-25 08:28:00,24.1,22.8,30.29,NNE,14,0.0,0.0,95,0.00,,,0.00,meteohub,2013-02-25 13:28:00,
2013-02-25 08:34:00,24.8,23.5,30.29,NNE,14,0.0,0.0,95,0.00,,,0.00,meteohub,2013-02-25 13:34:00,
2013-02-25 08:38:00,25.5,24.3,30.29,NNE,14,0.0,0.0,95,0.00,,,0.00,meteohub,2013-02-25 13:38:00,
2013-02-25 08:44:00,26.1,24.6,30.29,NNE,14,0.0,0.0,94,0.00,,,0.00,meteohub,2013-02-25 13:44:00,
2013-02-25 08:49:00,26.6,25.2,30.29,NNE,14,0.0,0.0,94,0.00,,,0.00,meteohub,2013-02-25 13:49:00,
2013-02-25 08:54:00,27.0,25.5,30.30,NNE,14,0.0,0.0,94,0.00,,,0.00,meteohub,2013-02-25 13:54:00,
2013-02-25 08:59:00,27.7,25.9,30.30,NNE,15,0.0,0.0,93,0.00,,,0.00,meteohub,2013-02-25 13:59:00,
2013-02-25 09:04:00,28.2,26.4,30.30,NNE,13,0.0,0.0,93,0.00,,,0.00,meteohub,2013-02-25 14:04:00,
2013-02-25 09:10:00,28.6,26.2,30.30,ENE,74,0.0,0.0,91,0.00,,,0.00,meteohub,2013-02-25 14:10:00,
2013-02-25 09:15:00,28.6,26.1,30.30,South,188,1.0,0.0,90,0.00,,,0.00,meteohub,2013-02-25 14:15:00,
2013-02-25 09:20:00,28.8,25.9,30.30,South,187,1.0,3.0,89,0.00,,,0.00,meteohub,2013-02-25 14:20:00,
2013-02-25 09:25:00,28.9,25.9,30.30,South,190,2.0,3.0,88,0.00,,,0.00,meteohub,2013-02-25 14:25:00,
2013-02-25 09:30:00,29.3,26.2,30.30,South,190,0.0,4.0,88,0.00,,,0.00,meteohub,2013-02-25 14:30:00,
2013-02-25 09:35:00,29.7,26.2,30.30,SW,218,2.0,4.0,87,0.00,,,0.00,meteohub,2013-02-25 14:35:00,
2013-02-25 09:40:00,30.0,26.1,30.30,SSW,203,3.0,4.0,85,0.00,,,0.00,meteohub,2013-02-25 14:40:00,
2013-02-25 09:45:00,30.6,26.6,30.30,SSW,205,0.0,4.0,85,0.00,,,0.00,meteohub,2013-02-25 14:45:00,
2013-02-25 09:51:00,30.9,26.6,30.30,SW,225,1.0,3.0,84,0.00,,,0.00,meteohub,2013-02-25 14:51:00,
2013-02-25 09:56:00,30.9,26.4,30.30,West,280,1.0,3.0,83,0.00,,,0.00,meteohub,2013-02-25 14:56:00,
2013-02-25 10:01:00,31.1,25.9,30.30,West,277,1.0,4.0,81,0.00,,,0.00,meteohub,2013-02-25 15:01:00,
2013-02-25 10:06:00,31.1,25.9,30.30,West,280,3.0,4.0,81,0.00,,,0.00,meteohub,2013-02-25 15:06:00,
2013-02-25 10:11:00,31.5,26.1,30.30,SW,234,2.0,4.0,80,0.00,,,0.00,meteohub,2013-02-25 15:11:00,
2013-02-25 10:16:00,31.6,25.9,30.30,SW,221,2.0,4.0,79,0.00,,,0.00,meteohub,2013-02-25 15:16:00,
2013-02-25 10:21:00,32.2,26.4,30.30,South,174,0.0,4.0,79,0.00,,,0.00,meteohub,2013-02-25 15:21:00,
2013-02-25 10:26:00,32.5,25.9,30.30,SW,217,4.0,4.0,76,0.00,,,0.00,meteohub,2013-02-25 15:26:00,
2013-02-25 10:31:00,32.2,24.8,30.30,SW,226,3.0,5.0,74,0.00,,,0.00,meteohub,2013-02-25 15:31:00,
2013-02-25 10:36:00,32.4,25.3,30.30,SSE,153,3.0,5.0,75,0.00,,,0.00,meteohub,2013-02-25 15:36:00,
2013-02-25 10:41:00,32.5,25.2,30.29,SSE,158,3.0,5.0,74,0.00,,,0.00,meteohub,2013-02-25 15:41:00,
2013-02-25 10:46:00,32.4,24.6,30.29,SE,133,4.0,6.0,73,0.00,,,0.00,meteohub,2013-02-25 15:46:00,
2013-02-25 10:52:00,32.4,25.0,30.29,SSE,157,6.0,6.0,74,0.00,,,0.00,meteohub,2013-02-25 15:52:00,
2013-02-25 10:57:00,32.4,24.6,30.29,SW,215,6.0,7.0,73,0.00,,,0.00,meteohub,2013-02-25 15:57:00,
2013-02-25 11:02:00,32.4,24.1,30.29,SSE,156,5.0,7.0,71,0.00,,,0.00,meteohub,2013-02-25 16:02:00,
2013-02-25 11:07:00,32.5,24.3,30.29,SSW,213,5.0,7.0,71,0.00,,,0.00,meteohub,2013-02-25 16:07:00,
2013-02-25 11:12:00,32.7,24.4,30.29,SSE,152,4.0,7.0,71,0.00,,,0.00,meteohub,2013-02-25 16:12:00,
2013-02-25 11:17:00,32.9,24.8,30.28,South,186,6.0,7.0,72,0.00,,,0.00,meteohub,2013-02-25 16:17:00,
2013-02-25 11:22:00,33.1,24.4,30.29,SSW,205,3.0,8.0,70,0.00,,,0.00,meteohub,2013-02-25 16:22:00,
2013-02-25 11:27:00,32.9,24.3,30.28,South,172,5.0,8.0,70,0.00,,,0.00,meteohub,2013-02-25 16:27:00,
2013-02-25 11:32:00,33.1,24.1,30.28,SSE,160,3.0,8.0,69,0.00,,,0.00,meteohub,2013-02-25 16:32:00,
2013-02-25 11:37:00,33.3,23.9,30.29,South,182,3.0,8.0,68,0.00,,,0.00,meteohub,2013-02-25 16:37:00,
2013-02-25 11:42:00,33.6,24.3,30.29,SSW,203,5.0,8.0,68,0.00,,,0.00,meteohub,2013-02-25 16:42:00,
2013-02-25 11:47:00,33.6,23.9,30.29,SSE,167,4.0,7.0,67,0.00,,,0.00,meteohub,2013-02-25 16:47:00,
2013-02-25 11:52:00,34.0,24.6,30.30,SW,227,4.0,8.0,68,0.00,,,0.00,meteohub,2013-02-25 16:52:00,
2013-02-25 11:57:00,34.5,24.3,30.29,SW,226,0.0,8.0,66,0.00,,,0.00,meteohub,2013-02-25 16:57:00,
2013-02-25 12:02:00,35.1,24.8,30.30,South,175,3.0,8.0,66,0.00,,,0.00,meteohub,2013-02-25 17:02:00,
2013-02-25 12:07:00,34.9,24.3,30.30,SW,214,0.0,7.0,65,0.00,,,0.00,meteohub,2013-02-25 17:07:00,
2013-02-25 12:12:00,35.1,24.8,30.29,South,175,3.0,7.0,66,0.00,,,0.00,meteohub,2013-02-25 17:12:00,
2013-02-25 12:17:00,34.9,24.6,30.28,WSW,253,2.0,7.0,66,0.00,,,0.00,meteohub,2013-02-25 17:17:00,
2013-02-25 12:22:00,35.2,24.6,30.29,WNW,294,2.0,5.0,65,0.00,,,0.00,meteohub,2013-02-25 17:22:00,
2013-02-25 12:27:00,35.4,23.0,30.29,SW,235,4.0,5.0,60,0.00,,,0.00,meteohub,2013-02-25 17:27:00,
2013-02-25 12:32:00,34.9,23.5,30.29,SSW,197,3.0,6.0,63,0.00,,,0.00,meteohub,2013-02-25 17:32:00,
2013-02-25 12:37:00,34.9,23.9,30.29,NW,306,2.0,7.0,64,0.00,,,0.00,meteohub,2013-02-25 17:37:00,
2013-02-25 12:42:00,35.1,24.1,30.29,SSW,213,2.0,7.0,64,0.00,,,0.00,meteohub,2013-02-25 17:42:00,
2013-02-25 12:47:00,35.2,24.3,30.29,SE,144,2.0,6.0,64,0.00,,,0.00,meteohub,2013-02-25 17:47:00,
2013-02-25 12:52:00,35.8,24.1,30.29,West,281,5.0,6.0,62,0.00,,,0.00,meteohub,2013-02-25 17:52:00,
2013-02-25 12:57:00,36.0,23.9,30.29,SW,227,2.0,6.0,61,0.00,,,0.00,meteohub,2013-02-25 17:57:00,
2013-02-25 13:02:00,36.0,23.0,30.29,ENE,66,1.0,5.0,59,0.00,,,0.00,meteohub,2013-02-25 18:02:00,
2013-02-25 13:07:00,36.0,23.0,30.29,WSW,255,2.0,5.0,59,0.00,,,0.00,meteohub,2013-02-25 18:07:00,
2013-02-25 13:12:00,36.1,23.5,30.28,WSW,249,3.0,5.0,60,0.00,,,0.00,meteohub,2013-02-25 18:12:00,
2013-02-25 13:17:00,36.5,23.9,30.28,SSW,213,2.0,5.0,60,0.00,,,0.00,meteohub,2013-02-25 18:17:00,
2013-02-25 13:22:00,36.7,23.4,30.28,East,100,2.0,5.0,58,0.00,,,0.00,meteohub,2013-02-25 18:22:00,
2013-02-25 13:27:00,36.3,23.0,30.28,NE,55,5.0,5.0,58,0.00,,,0.00,meteohub,2013-02-25 18:27:00,
2013-02-25 13:32:00,35.8,23.2,30.27,NE,51,4.0,7.0,60,0.00,,,0.00,meteohub,2013-02-25 18:32:00,
2013-02-25 13:37:00,36.0,23.9,30.27,ENE,75,1.0,7.0,61,0.00,,,0.00,meteohub,2013-02-25 18:37:00,
2013-02-25 13:42:00,36.3,23.4,30.26,East,80,1.0,7.0,59,0.00,,,0.00,meteohub,2013-02-25 18:42:00,
2013-02-25 13:47:00,36.9,23.9,30.25,NW,311,1.0,5.0,59,0.00,,,0.00,meteohub,2013-02-25 18:47:00,
2013-02-25 13:52:00,36.9,23.0,30.25,NE,52,3.0,4.0,57,0.00,,,0.00,meteohub,2013-02-25 18:52:00,
2013-02-25 13:57:00,37.0,23.2,30.25,ENE,57,0.0,4.0,57,0.00,,,0.00,meteohub,2013-02-25 18:57:00,
2013-02-25 14:02:00,37.6,25.0,30.24,ENE,66,1.0,4.0,60,0.00,,,0.00,meteohub,2013-02-25 19:02:00,
2013-02-25 14:07:00,37.8,24.3,30.24,South,178,2.0,3.0,58,0.00,,,0.00,meteohub,2013-02-25 19:07:00,
2013-02-25 14:12:00,37.2,23.4,30.24,SSE,148,3.0,6.0,57,0.00,,,0.00,meteohub,2013-02-25 19:12:00,
2013-02-25 14:17:00,37.0,22.8,30.24,East,98,3.0,7.0,56,0.00,,,0.00,meteohub,2013-02-25 19:17:00,
2013-02-25 14:22:00,36.9,22.6,30.23,SSE,147,4.0,7.0,56,0.00,,,0.00,meteohub,2013-02-25 19:22:00,
2013-02-25 14:27:00,36.9,22.3,30.23,SE,134,0.0,7.0,55,0.00,,,0.00,meteohub,2013-02-25 19:27:00,
2013-02-25 14:32:00,37.2,22.5,30.22,SSW,201,0.0,6.0,55,0.00,,,0.00,meteohub,2013-02-25 19:32:00,
2013-02-25 14:37:00,37.2,23.0,30.23,SSW,205,4.0,5.0,56,0.00,,,0.00,meteohub,2013-02-25 19:37:00,
2013-02-25 14:42:00,37.2,23.7,30.23,SW,224,4.0,7.0,58,0.00,,,0.00,meteohub,2013-02-25 19:42:00,
2013-02-25 14:48:00,37.0,23.2,30.22,SSE,161,2.0,8.0,57,0.00,,,0.00,meteohub,2013-02-25 19:48:00,
2013-02-25 14:53:00,37.2,23.4,30.22,SSE,154,2.0,8.0,57,0.00,,,0.00,meteohub,2013-02-25 19:53:00,
2013-02-25 14:58:00,37.6,22.8,30.22,East,94,2.0,8.0,55,0.00,,,0.00,meteohub,2013-02-25 19:58:00,
2013-02-25 15:03:00,37.6,21.9,30.22,East,89,3.0,9.0,53,0.00,,,0.00,meteohub,2013-02-25 20:03:00,
2013-02-25 15:08:00,37.6,22.8,30.22,SW,218,6.0,9.0,55,0.00,,,0.00,meteohub,2013-02-25 20:08:00,
2013-02-25 15:13:00,37.6,24.1,30.22,SSE,162,3.0,10.0,58,0.01,,,0.01,meteohub,2013-02-25 20:13:00,
2013-02-25 15:18:00,37.8,23.0,30.22,SSW,195,5.0,10.0,55,0.01,,,0.01,meteohub,2013-02-25 20:18:00,
2013-02-25 15:23:00,37.8,23.5,30.22,SSE,164,5.0,10.0,56,0.01,,,0.01,meteohub,2013-02-25 20:23:00,
2013-02-25 15:28:00,37.6,22.8,30.22,SSE,163,5.0,9.0,55,0.01,,,0.01,meteohub,2013-02-25 20:28:00,
2013-02-25 15:33:00,37.6,22.8,30.22,SE,145,2.0,9.0,55,0.01,,,0.01,meteohub,2013-02-25 20:33:00,
2013-02-25 15:38:00,37.6,23.4,30.22,SE,135,5.0,8.0,56,0.01,,,0.01,meteohub,2013-02-25 20:38:00,
2013-02-25 15:43:00,37.8,23.9,30.22,SE,138,1.0,8.0,57,0.01,,,0.01,meteohub,2013-02-25 20:43:00,
2013-02-25 15:49:00,37.9,24.4,30.22,SE,137,4.0,7.0,58,0.01,,,0.01,meteohub,2013-02-25 20:49:00,
2013-02-25 15:54:00,37.8,24.3,30.22,SE,140,2.0,7.0,58,0.01,,,0.01,meteohub,2013-02-25 20:54:00,
2013-02-25 15:59:00,37.8,24.8,30.23,SSE,149,1.0,7.0,59,0.01,,,0.01,meteohub,2013-02-25 20:59:00,
2013-02-25 16:04:00,37.9,25.0,30.22,SSE,149,5.0,7.0,59,0.01,,,0.01,meteohub,2013-02-25 21:04:00,
2013-02-25 16:09:00,37.9,24.4,30.22,SE,137,4.0,7.0,58,0.00,,,0.01,meteohub,2013-02-25 21:09:00,
2013-02-25 16:14:00,37.8,24.3,30.22,SSE,156,4.0,7.0,58,0.00,,,0.01,meteohub,2013-02-25 21:14:00,
2013-02-25 16:19:00,37.8,24.3,30.21,ESE,103,3.0,7.0,58,0.00,,,0.01,meteohub,2013-02-25 21:19:00,
2013-02-25 16:24:00,37.8,24.3,30.21,SSE,147,4.0,7.0,58,0.00,,,0.01,meteohub,2013-02-25 21:24:00,
2013-02-25 16:29:00,37.6,24.1,30.22,SE,136,3.0,9.0,58,0.00,,,0.01,meteohub,2013-02-25 21:29:00,
2013-02-25 16:34:00,37.8,24.3,30.22,SE,136,1.0,9.0,58,0.00,,,0.01,meteohub,2013-02-25 21:34:00,
2013-02-25 16:39:00,37.8,24.8,30.22,SSE,162,1.0,9.0,59,0.00,,,0.01,meteohub,2013-02-25 21:39:00,
2013-02-25 16:44:00,37.8,24.3,30.22,East,98,3.0,6.0,58,0.00,,,0.01,meteohub,2013-02-25 21:44:00,
2013-02-25 16:50:00,37.8,24.3,30.22,SSE,151,3.0,4.0,58,0.00,,,0.01,meteohub,2013-02-25 21:50:00,
2013-02-25 16:55:00,37.4,23.9,30.22,SSE,147,3.0,9.0,58,0.00,,,0.01,meteohub,2013-02-25 21:55:00,
2013-02-25 17:00:00,37.2,24.3,30.22,ESE,105,2.0,9.0,59,0.00,,,0.01,meteohub,2013-02-25 22:00:00,
2013-02-25 17:05:00,37.2,24.3,30.22,SSE,150,1.0,9.0,59,0.00,,,0.01,meteohub,2013-02-25 22:05:00,
2013-02-25 17:10:00,37.2,24.3,30.22,SSE,153,4.0,8.0,59,0.00,,,0.01,meteohub,2013-02-25 22:10:00,
2013-02-25 17:15:00,37.2,24.3,30.22,South,169,2.0,7.0,59,0.00,,,0.01,meteohub,2013-02-25 22:15:00,
2013-02-25 17:20:00,37.0,24.4,30.22,SSE,150,3.0,7.0,60,0.00,,,0.01,meteohub,2013-02-25 22:20:00,
2013-02-25 17:25:00,37.0,24.1,30.22,South,190,4.0,7.0,59,0.00,,,0.01,meteohub,2013-02-25 22:25:00,
2013-02-25 17:30:00,36.9,23.9,30.22,SSE,148,3.0,7.0,59,0.00,,,0.01,meteohub,2013-02-25 22:30:00,
2013-02-25 17:35:00,36.7,24.1,30.21,SSE,163,2.0,7.0,60,0.00,,,0.01,meteohub,2013-02-25 22:35:00,
2013-02-25 17:40:00,36.5,23.9,30.21,South,188,4.0,5.0,60,0.00,,,0.01,meteohub,2013-02-25 22:40:00,
2013-02-25 17:45:00,36.3,24.1,30.22,SSE,154,0.0,6.0,61,0.00,,,0.01,meteohub,2013-02-25 22:45:00,
2013-02-25 17:50:00,36.1,24.4,30.22,SE,146,3.0,6.0,62,0.00,,,0.01,meteohub,2013-02-25 22:50:00,
2013-02-25 17:55:00,36.0,24.3,30.21,ENE,65,2.0,5.0,62,0.00,,,0.01,meteohub,2013-02-25 22:55:00,
2013-02-25 18:01:00,35.8,24.4,30.21,ESE,121,2.0,5.0,63,0.00,,,0.01,meteohub,2013-02-25 23:01:00,
2013-02-25 18:06:00,35.4,24.4,30.21,East,84,7.0,7.0,64,0.00,,,0.01,meteohub,2013-02-25 23:06:00,
2013-02-25 18:11:00,35.1,24.8,30.21,East,84,3.0,7.0,66,0.00,,,0.01,meteohub,2013-02-25 23:11:00,
2013-02-25 18:16:00,34.3,24.4,30.21,ESE,111,1.0,7.0,67,0.00,,,0.01,meteohub,2013-02-25 23:16:00,
2013-02-25 18:21:00,33.8,24.4,30.21,East,90,2.0,7.0,68,0.00,,,0.01,meteohub,2013-02-25 23:21:00,
2013-02-25 18:26:00,33.3,24.3,30.21,ESE,113,2.0,5.0,69,0.00,,,0.01,meteohub,2013-02-25 23:26:00,
2013-02-25 18:31:00,32.9,24.3,30.21,East,85,2.0,6.0,70,0.00,,,0.01,meteohub,2013-02-25 23:31:00,
2013-02-25 18:36:00,32.5,23.9,30.21,ESE,107,1.0,7.0,70,0.00,,,0.01,meteohub,2013-02-25 23:36:00,
2013-02-25 18:41:00,32.4,24.1,30.21,SE,128,0.0,7.0,71,0.00,,,0.01,meteohub,2013-02-25 23:41:00,
2013-02-25 18:46:00,32.2,23.9,30.21,ESE,117,1.0,7.0,71,0.00,,,0.01,meteohub,2013-02-25 23:46:00,
2013-02-25 18:51:00,31.8,23.9,30.21,East,88,0.0,5.0,72,0.00,,,0.01,meteohub,2013-02-25 23:51:00,
2013-02-25 18:56:00,31.5,23.9,30.21,East,94,0.0,5.0,73,0.00,,,0.01,meteohub,2013-02-25 23:56:00,
2013-02-25 19:01:00,31.3,23.7,30.22,ESE,115,2.0,3.0,73,0.00,,,0.01,meteohub,2013-02-26 00:01:00,
2013-02-25 19:07:00,30.7,23.2,30.22,ESE,115,0.0,4.0,73,0.00,,,0.01,meteohub,2013-02-26 00:07:00,
2013-02-25 19:12:00,30.6,23.2,30.22,ESE,104,1.0,4.0,74,0.00,,,0.01,meteohub,2013-02-26 00:12:00,
2013-02-25 19:17:00,30.4,23.2,30.22,SE,132,0.0,5.0,74,0.00,,,0.01,meteohub,2013-02-26 00:17:00,
2013-02-25 19:22:00,30.2,23.2,30.22,SE,126,4.0,5.0,75,0.00,,,0.01,meteohub,2013-02-26 00:22:00,
2013-02-25 19:27:00,30.0,23.0,30.22,ESE,113,1.0,5.0,75,0.00,,,0.01,meteohub,2013-02-26 00:27:00,
2013-02-25 19:32:00,29.8,22.8,30.22,ESE,123,0.0,5.0,75,0.00,,,0.01,meteohub,2013-02-26 00:32:00,
2013-02-25 19:37:00,29.7,22.6,30.22,SE,126,1.0,5.0,75,0.00,,,0.01,meteohub,2013-02-26 00:37:00,
2013-02-25 19:42:00,29.7,23.0,30.22,SE,126,0.0,5.0,76,0.00,,,0.01,meteohub,2013-02-26 00:42:00,
2013-02-25 19:47:00,29.3,22.6,30.22,SE,126,2.0,5.0,76,0.00,,,0.01,meteohub,2013-02-26 00:47:00,
2013-02-25 19:52:00,29.1,22.5,30.22,ESE,121,1.0,5.0,76,0.00,,,0.01,meteohub,2013-02-26 00:52:00,
2013-02-25 19:57:00,29.1,22.5,30.22,SE,125,3.0,5.0,76,0.00,,,0.01,meteohub,2013-02-26 00:57:00,
2013-02-25 20:02:00,28.9,22.3,30.22,ESE,110,2.0,4.0,76,0.00,,,0.01,meteohub,2013-02-26 01:02:00,
2013-02-25 20:07:00,28.9,22.3,30.22,ESE,110,3.0,3.0,76,0.00,,,0.01,meteohub,2013-02-26 01:07:00,
2013-02-25 20:12:00,28.8,22.1,30.22,SE,128,2.0,4.0,76,0.00,,,0.01,meteohub,2013-02-26 01:12:00,
2013-02-25 20:17:00,28.8,22.5,30.22,ESE,123,2.0,4.0,77,0.00,,,0.01,meteohub,2013-02-26 01:17:00,
2013-02-25 20:22:00,28.6,22.3,30.22,SE,131,2.0,4.0,77,0.00,,,0.01,meteohub,2013-02-26 01:22:00,
2013-02-25 20:27:00,28.6,22.3,30.22,ESE,109,2.0,4.0,77,0.00,,,0.01,meteohub,2013-02-26 01:27:00,
2013-02-25 20:32:00,28.4,22.1,30.22,East,84,2.0,4.0,77,0.00,,,0.01,meteohub,2013-02-26 01:32:00,
2013-02-25 20:37:00,28.4,22.1,30.23,East,91,1.0,5.0,77,0.00,,,0.01,meteohub,2013-02-26 01:37:00,
2013-02-25 20:42:00,28.2,21.9,30.23,East,93,1.0,5.0,77,0.00,,,0.01,meteohub,2013-02-26 01:42:00,
2013-02-25 20:47:00,28.2,21.9,30.23,East,92,2.0,5.0,77,0.00,,,0.01,meteohub,2013-02-26 01:47:00,
2013-02-25 20:52:00,28.0,21.7,30.23,East,90,1.0,4.0,77,0.00,,,0.01,meteohub,2013-02-26 01:52:00,
2013-02-25 20:57:00,28.0,21.7,30.23,ESE,115,2.0,4.0,77,0.00,,,0.01,meteohub,2013-02-26 01:57:00,
2013-02-25 21:02:00,27.9,21.6,30.23,ESE,114,0.0,3.0,77,0.00,,,0.01,meteohub,2013-02-26 02:02:00,
2013-02-25 21:08:00,27.9,21.6,30.23,ESE,116,1.0,3.0,77,0.00,,,0.01,meteohub,2013-02-26 02:08:00,
2013-02-25 21:13:00,27.9,21.6,30.21,ESE,117,1.0,2.0,77,0.00,,,0.01,meteohub,2013-02-26 02:13:00,
2013-02-25 21:18:00,27.7,21.4,30.21,SE,126,3.0,4.0,77,0.00,,,0.01,meteohub,2013-02-26 02:18:00,
2013-02-25 21:23:00,27.5,21.2,30.21,ESE,111,1.0,4.0,77,0.00,,,0.01,meteohub,2013-02-26 02:23:00,
2013-02-25 21:28:00,27.5,21.2,30.20,ESE,117,1.0,4.0,77,0.00,,,0.01,meteohub,2013-02-26 02:28:00,
2013-02-25 21:33:00,27.5,21.6,30.20,SE,132,3.0,4.0,78,0.00,,,0.01,meteohub,2013-02-26 02:33:00,
2013-02-25 21:39:00,27.3,21.4,30.19,SE,132,2.0,4.0,78,0.00,,,0.01,meteohub,2013-02-26 02:39:00,
2013-02-25 21:44:00,27.3,21.4,30.19,SE,136,1.0,5.0,78,0.00,,,0.01,meteohub,2013-02-26 02:44:00,
2013-02-25 21:49:00,27.3,21.4,30.19,East,84,2.0,5.0,78,0.00,,,0.01,meteohub,2013-02-26 02:49:00,
2013-02-25 21:54:00,27.3,21.4,30.18,ESE,112,1.0,5.0,78,0.00,,,0.01,meteohub,2013-02-26 02:54:00,
2013-02-25 21:59:00,27.1,21.2,30.18,SE,130,2.0,4.0,78,0.00,,,0.01,meteohub,2013-02-26 02:59:00,
2013-02-25 22:04:00,27.1,21.2,30.17,SE,133,4.0,4.0,78,0.00,,,0.01,meteohub,2013-02-26 03:04:00,
2013-02-25 22:10:00,27.1,21.2,30.17,East,101,2.0,5.0,78,0.00,,,0.01,meteohub,2013-02-26 03:10:00,
2013-02-25 22:15:00,27.1,21.2,30.16,ESE,108,2.0,7.0,78,0.00,,,0.01,meteohub,2013-02-26 03:15:00,
2013-02-25 22:20:00,27.1,21.2,30.16,SE,140,4.0,7.0,78,0.00,,,0.01,meteohub,2013-02-26 03:20:00,
2013-02-25 22:25:00,27.1,21.2,30.16,SE,127,1.0,7.0,78,0.00,,,0.01,meteohub,2013-02-26 03:25:00,
2013-02-25 22:30:00,27.1,21.2,30.15,SE,134,3.0,6.0,78,0.00,,,0.01,meteohub,2013-02-26 03:30:00,
2013-02-25 22:35:00,27.1,21.2,30.15,ESE,120,3.0,5.0,78,0.00,,,0.01,meteohub,2013-02-26 03:35:00,
2013-02-25 22:40:00,27.0,21.0,30.15,SE,140,2.0,6.0,78,0.00,,,0.01,meteohub,2013-02-26 03:40:00,
2013-02-25 22:46:00,27.0,21.0,30.16,SE,126,2.0,6.0,78,0.00,,,0.01,meteohub,2013-02-26 03:46:00,
2013-02-25 22:51:00,27.0,21.0,30.16,SSE,147,4.0,4.0,78,0.00,,,0.01,meteohub,2013-02-26 03:51:00,
2013-02-25 22:56:00,27.0,21.0,30.16,ESE,120,1.0,5.0,78,0.00,,,0.01,meteohub,2013-02-26 03:56:00,
2013-02-25 23:01:00,27.0,21.0,30.17,SE,128,2.0,5.0,78,0.00,,,0.01,meteohub,2013-02-26 04:01:00,
2013-02-25 23:06:00,26.8,20.8,30.17,SE,137,2.0,4.0,78,0.00,,,0.01,meteohub,2013-02-26 04:06:00,
2013-02-25 23:11:00,26.8,20.8,30.17,SE,142,1.0,4.0,78,0.00,,,0.01,meteohub,2013-02-26 04:11:00,
2013-02-25 23:16:00,26.8,20.8,30.17,SE,142,0.0,3.0,78,0.00,,,0.01,meteohub,2013-02-26 04:16:00,
2013-02-25 23:21:00,26.6,21.0,30.17,SE,142,0.0,3.0,79,0.00,,,0.01,meteohub,2013-02-26 04:21:00,
2013-02-25 23:26:00,26.4,20.8,30.17,SE,142,0.0,3.0,79,0.00,,,0.01,meteohub,2013-02-26 04:26:00,
2013-02-25 23:31:00,26.4,20.8,30.16,SE,142,1.0,3.0,79,0.00,,,0.01,meteohub,2013-02-26 04:31:00,
2013-02-25 23:36:00,26.2,20.7,30.17,SE,142,0.0,2.0,79,0.00,,,0.01,meteohub,2013-02-26 04:36:00,
2013-02-25 23:42:00,26.2,20.7,30.17,SE,142,0.0,2.0,79,0.00,,,0.01,meteohub,2013-02-26 04:42:00,
2013-02-25 23:47:00,26.2,20.8,30.18,SE,142,0.0,2.0,80,0.00,,,0.01,meteohub,2013-02-26 04:47:00,
2013-02-25 23:52:00,26.1,20.7,30.17,SE,129,0.0,1.0,80,0.00,,,0.01,meteohub,2013-02-26 04:52:00,
2013-02-25 23:57:00,26.2,20.8,30.18,SE,129,0.0,3.0,80,0.00,,,0.01,meteohub,2013-02-26 04:57:00,